Location: Montbazon
(47.2835°N, 0.6999°E)
Time: 07:07:39
(UTC+00:00)

CZ-2C R/B - Pass Details

Date: 08 November 2025
Orbit: 664 x 773 km, 98.4° (Epoch: 16 December)

Event Time Altitude Azimuth Distance (km) Brightness Sun altitude
Rises 04:14:18 0° 13° (NNE) 3,179 5.9 -26.8°
Reaches altitude 10° 04:16:34 10° 13° (NNE) 2,267 5.1 -26.4°
Maximum altitude 04:21:35 84° 286° (WNW) 768 2.3 -25.5°
Enters shadow 04:22:05 73° 215° (SW) 797 2.4 -25.4°
